GW1995 Weather Reports


time (UTC)temp
C
wind
direction
speed
KPH
gust
KPH
rain 1hr
cm
rain 24hr
cm
rain mn
cm
humidity
%
barometer
mb
20260507032653 3 232 0.0 1.6 0.00 0.00 0.00 61 1014.6
20260507032148 3 232 0.0 1.6 0.00 0.00 0.00 61 1014.6
20260507031645 3 232 0.0 1.6 0.00 0.00 0.00 62 1014.6
20260507031142 3 231 1.6 1.6 0.00 0.00 0.00 61 1014.7
20260507030639 3 231 0.0 1.6 0.00 0.00 0.00 60 1014.8
20260507030137 3 231 0.0 1.6 0.00 0.00 0.00 61 1014.7
20260507025633 3 232 0.0 0.0 0.00 0.00 0.00 60 1014.6
20260507025130 3 231 0.0 1.6 0.00 0.00 0.00 59 1014.7
20260507024628 3 232 0.0 1.6 0.00 0.00 0.00 58 1014.6
20260507024125 3 231 0.0 1.6 0.00 0.00 0.00 58 1014.8
20260507023621 4 232 0.0 1.6 0.00 0.00 0.00 57 1014.6
20260507023119 4 232 0.0 1.6 0.00 0.00 0.00 56 1014.5
20260507022615 4 232 0.0 0.0 0.00 0.00 0.00 55 1014.6
20260507022110 5 232 0.0 0.0 0.00 0.00 0.00 55 1014.6
20260507021607 5 232 0.0 0.0 0.00 0.00 0.00 54 1014.6
20260507021103 5 232 0.0 1.6 0.00 0.00 0.00 54 1014.7
20260507020602 5 232 0.0 1.6 0.00 0.00 0.00 53 1014.6
20260507020057 5 247 0.0 0.0 0.00 0.00 0.00 52 1014.6
20260507015556 5 247 0.0 1.6 0.00 0.00 0.00 52 1014.7
20260507015053 5 247 0.0 1.6 0.00 0.00 0.00 51 1014.6
20260507014550 6 247 1.6 1.6 0.00 0.00 0.00 50 1014.6
20260507014045 6 244 1.6 1.6 0.00 0.00 0.00 49 1014.5
20260507013542 6 242 0.0 1.6 0.00 0.00 0.00 49 1014.5
20260507013039 6 247 1.6 3.2 0.00 0.00 0.00 48 1014.6
20260507012536 6 234 1.6 4.8 0.00 0.00 0.00 48 1014.7
20260507012027 6 246 1.6 3.2 0.00 0.00 0.00 47 1014.6
20260507011524 6 245 0.0 1.6 0.00 0.00 0.00 48 1014.6
20260507011020 7 249 1.6 3.2 0.00 0.00 0.00 48 1014.6
20260507010515 7 241 1.6 3.2 0.00 0.00 0.00 48 1014.7
20260507010012 7 241 1.6 1.6 0.00 0.00 0.00 48 1014.8
20260507005509 7 271 1.6 4.8 0.00 0.00 0.00 48 1014.6
20260507005005 7 212 3.2 4.8 0.00 0.00 0.00 47 1014.8
20260507004502 7 304 4.8 8.0 0.00 0.00 0.00 47 1014.6
20260507004000 7 255 1.6 1.6 0.00 0.00 0.00 48 1014.7
20260507003455 7 266 0.0 4.8 0.00 0.00 0.00 47 1014.8
20260507002950 7 253 1.6 4.8 0.00 0.00 0.00 47 1014.6
20260507002447 7 319 3.2 8.0 0.00 0.00 0.00 47 1014.8
20260507001944 7 306 3.2 9.7 0.00 0.00 0.00 48 1014.8
20260507001440 7 270 4.8 12.9 0.00 0.00 0.00 47 1014.7
20260507000938 7 300 3.2 4.8 0.00 0.00 0.00 47 1014.7
20260507000435 7 305 4.8 9.7 0.00 0.00 0.00 46 1015.0
20260506235929 7 230 3.2 4.8 0.00 0.00 0.00 47 1014.9
20260506235427 7 288 1.6 11.3 0.00 0.00 0.00 48 1014.8
20260506234921 7 336 1.6 9.7 0.00 0.00 0.00 48 1014.8
20260506234419 7 257 4.8 8.0 0.00 0.00 0.00 47 1014.9
20260506233912 7 304 3.2 8.0 0.00 0.00 0.00 47 1014.9
20260506233407 7 273 3.2 8.0 0.00 0.00 0.00 47 1014.8
20260506232905 7 325 4.8 8.0 0.00 0.00 0.00 48 1015.1
20260506232401 7 310 1.6 3.2 0.00 0.00 0.00 48 1015.1
20260506231856 7 249 1.6 4.8 0.00 0.00 0.00 48 1015.0
20260506231354 7 254 1.6 3.2 0.00 0.00 0.00 48 1015.0
20260506230852 7 260 4.8 4.8 0.00 0.00 0.00 48 1015.3
20260506230348 6 269 1.6 4.8 0.00 0.00 0.00 48 1015.0
20260506225844 6 280 3.2 8.0 0.00 0.00 0.00 47 1015.1
20260506225342 6 289 3.2 11.3 0.00 0.00 0.00 48 1015.1
20260506224839 7 300 3.2 4.8 0.00 0.00 0.00 48 1015.1
20260506224336 7 287 4.8 8.0 0.00 0.00 0.00 48 1015.1
20260506223832 7 313 1.6 11.3 0.00 0.00 0.00 48 1015.1
20260506223327 7 281 3.2 4.8 0.00 0.00 0.00 47 1015.2
20260506222825 6 233 1.6 4.8 0.00 0.00 0.00 48 1015.2
20260506222320 6 270 4.8 4.8 0.00 0.00 0.00 48 1015.3
20260506221818 6 331 4.8 9.7 0.00 0.00 0.00 49 1015.2
20260506221316 6 249 3.2 4.8 0.00 0.00 0.00 48 1015.1
20260506220813 6 237 1.6 8.0 0.00 0.00 0.00 49 1015.1
20260506220308 7 305 3.2 4.8 0.00 0.00 0.00 49 1015.4
20260506215805 6 247 1.6 3.2 0.00 0.00 0.00 50 1015.2
20260506215301 6 199 3.2 9.7 0.00 0.00 0.00 49 1015.6
20260506214756 6 317 3.2 11.3 0.00 0.00 0.00 49 1015.3
20260506214254 6 260 3.2 4.8 0.00 0.00 0.00 49 1015.3
20260506213752 6 260 4.8 8.0 0.00 0.00 0.00 49 1015.4
20260506213249 6 268 1.6 4.8 0.00 0.00 0.00 49 1015.4
20260506212746 6 303 4.8 9.7 0.00 0.00 0.00 49 1015.6
20260506212242 6 325 4.8 16.1 0.00 0.00 0.00 49 1015.5
20260506211737 6 279 4.8 4.8 0.00 0.00 0.00 49 1015.5
20260506211234 6 287 6.4 8.0 0.00 0.00 0.00 48 1015.5
20260506210731 6 264 4.8 9.7 0.00 0.00 0.00 49 1015.6
20260506210228 6 227 4.8 9.7 0.00 0.00 0.00 49 1015.7
20260506205725 6 290 3.2 4.8 0.00 0.00 0.00 49 1015.7
20260506205220 6 274 4.8 9.7 0.00 0.00 0.00 49 1015.6
20260506204717 6 297 6.4 12.9 0.00 0.00 0.00 49 1015.5
20260506204214 6 302 3.2 8.0 0.00 0.00 0.00 49 1015.6
20260506203712 6 279 3.2 4.8 0.00 0.00 0.00 49 1015.5
20260506203209 6 292 3.2 4.8 0.00 0.00 0.00 48 1015.5
20260506202702 6 237 4.8 11.3 0.00 0.00 0.00 49 1015.6
20260506202157 6 282 6.4 8.0 0.00 0.00 0.00 49 1015.7
20260506201655 6 222 4.8 8.0 0.00 0.00 0.00 48 1015.6
20260506201151 6 277 4.8 9.7 0.00 0.00 0.00 48 1015.7
20260506200648 6 222 3.2 3.2 0.00 0.00 0.00 48 1015.7
20260506200144 6 274 4.8 11.3 0.00 0.00 0.00 49 1015.6
20260506195641 6 260 3.2 14.5 0.00 0.00 0.00 49 1015.6
20260506195137 6 281 6.4 12.9 0.00 0.00 0.00 48 1015.6
20260506194635 6 285 1.6 4.8 0.00 0.00 0.00 49 1015.8
20260506194131 6 265 3.2 8.0 0.00 0.00 0.00 49 1015.7
20260506193629 6 289 4.8 9.7 0.00 0.00 0.00 49 1015.8
20260506193126 6 255 4.8 11.3 0.00 0.00 0.00 48 1015.7
20260506192623 6 272 1.6 9.7 0.00 0.00 0.00 49 1015.7
20260506192118 6 227 4.8 8.0 0.00 0.00 0.00 48 1015.8
20260506191616 6 245 3.2 8.0 0.00 0.00 0.00 48 1015.9
20260506191111 6 274 3.2 11.3 0.00 0.00 0.00 48 1015.9
20260506190609 6 226 8.0 9.7 0.00 0.00 0.00 48 1015.7
20260506190106 6 261 4.8 11.3 0.00 0.00 0.00 49 1015.7
20260506185603 6 246 1.6 11.3 0.00 0.00 0.00 47 1015.7
20260506185059 6 212 1.6 9.7 0.00 0.00 0.00 48 1015.8
20260506184557 6 274 4.8 9.7 0.00 0.00 0.00 49 1016.0
20260506184054 6 302 3.2 9.7 0.00 0.00 0.00 49 1015.7
20260506183550 6 241 9.7 11.3 0.00 0.00 0.00 49 1015.6
20260506183046 6 221 4.8 12.9 0.00 0.00 0.00 49 1015.7
20260506182544 6 246 9.7 12.9 0.00 0.00 0.00 48 1015.9
20260506182041 6 295 4.8 8.0 0.00 0.00 0.00 48 1015.9
20260506181539 6 261 4.8 11.3 0.00 0.00 0.00 48 1016.0
20260506181035 5 221 3.2 12.9 0.00 0.00 0.00 49 1015.8
20260506180532 6 275 6.4 12.9 0.00 0.00 0.00 49 1015.9
20260506180029 5 240 3.2 8.0 0.00 0.00 0.00 49 1016.1
20260506175525 5 235 4.8 11.3 0.00 0.00 0.00 49 1015.9
20260506175022 5 283 6.4 12.9 0.00 0.00 0.00 50 1016.1
20260506174520 5 271 3.2 11.3 0.00 0.00 0.00 50 1016.1
20260506174016 5 313 4.8 8.0 0.00 0.00 0.00 49 1016.0
20260506173514 5 258 6.4 8.0 0.00 0.00 0.00 50 1016.2
20260506173011 5 297 3.2 11.3 0.00 0.00 0.00 49 1016.2
20260506172508 5 257 4.8 11.3 0.00 0.00 0.00 49 1016.1
20260506172004 5 261 3.2 9.7 0.00 0.00 0.00 50 1016.2
20260506171501 5 268 6.4 12.9 0.00 0.00 0.00 49 1016.0
20260506170958 5 254 1.6 9.7 0.00 0.00 0.00 50 1016.1
20260506170455 5 303 3.2 12.9 0.00 0.00 0.00 49 1016.2
20260506165948 5 273 4.8 8.0 0.00 0.00 0.00 49 1016.4
20260506165446 5 281 4.8 12.9 0.00 0.00 0.00 49 1016.2
20260506164936 5 229 6.4 16.1 0.00 0.00 0.00 49 1016.4
20260506164433 5 263 4.8 11.3 0.00 0.00 0.00 50 1016.2
20260506163931 5 291 3.2 16.1 0.00 0.00 0.00 50 1016.4
20260506163426 5 275 3.2 14.5 0.00 0.00 0.00 50 1016.1
20260506162921 5 258 6.4 9.7 0.00 0.00 0.00 50 1016.1
20260506162418 5 215 4.8 12.9 0.00 0.00 0.00 50 1016.2
20260506161910 5 183 6.4 11.3 0.00 0.00 0.00 50 1016.1
20260506161408 5 336 11.3 14.5 0.00 0.00 0.00 50 1015.9
20260506160904 5 314 8.0 9.7 0.00 0.00 0.00 49 1016.1
20260506160401 5 301 8.0 9.7 0.00 0.00 0.00 50 1016.1
20260506155900 5 269 4.8 8.0 0.00 0.00 0.00 49 1016.1
20260506155357 5 282 8.0 11.3 0.00 0.00 0.00 49 1016.1
20260506153519 5 263 3.2 14.5 0.00 0.00 0.00 49 1015.9
20260506153017 5 216 8.0 12.9 0.00 0.00 0.00 49 1015.9
20260506152514 5 267 8.0 11.3 0.00 0.00 0.00 49 1016.0
20260506152012 5 261 4.8 8.0 0.00 0.00 0.00 49 1015.9
20260506151509 5 274 8.0 20.9 0.00 0.00 0.00 50 1015.9
20260506151006 5 290 4.8 9.7 0.00 0.00 0.00 50 1016.0
20260506150502 5 254 1.6 14.5 0.00 0.00 0.00 49 1016.1
20260506145959 5 218 4.8 9.7 0.00 0.00 0.00 51 1015.9
20260506145456 5 292 1.6 9.7 0.00 0.00 0.00 50 1015.7
20260506144954 5 289 6.4 11.3 0.00 0.00 0.00 50 1016.0
20260506144450 5 247 8.0 11.3 0.00 0.00 0.00 51 1016.1
20260506143948 5 265 1.6 9.7 0.00 0.00 0.00 52 1016.1
20260506143445 5 248 6.4 9.7 0.00 0.00 0.00 52 1016.1
20260506142944 5 216 8.0 11.3 0.00 0.00 0.00 51 1015.9
20260506142441 5 278 3.2 11.3 0.00 0.00 0.00 53 1015.8
20260506141939 5 253 3.2 9.7 0.00 0.00 0.00 52 1015.9
20260506141436 5 300 4.8 4.8 0.00 0.00 0.00 53 1015.9
20260506140935 5 266 4.8 12.9 0.00 0.00 0.00 53 1015.9
20260506140431 5 210 3.2 9.7 0.00 0.00 0.00 53 1015.8
20260506135928 5 260 3.2 4.8 0.00 0.00 0.00 53 1015.8
20260506135425 5 309 6.4 8.0 0.00 0.00 0.00 53 1015.7
20260506134922 5 278 8.0 12.9 0.00 0.00 0.00 53 1015.7
20260506134418 5 235 3.2 4.8 0.00 0.00 0.00 56 1015.7
20260506133915 4 282 4.8 8.0 0.00 0.00 0.00 56 1015.9
20260506133411 4 263 6.4 11.3 0.00 0.00 0.00 56 1015.8
20260506132908 4 250 3.2 9.7 0.00 0.00 0.00 57 1015.6
20260506132405 4 254 4.8 12.9 0.00 0.00 0.00 56 1015.5
20260506131904 4 260 6.4 8.0 0.00 0.00 0.00 57 1015.7
20260506131359 3 292 1.6 8.0 0.00 0.00 0.00 57 1015.6
20260506130856 3 248 1.6 4.8 0.00 0.00 0.00 58 1015.4
20260506130353 3 282 8.0 11.3 0.00 0.00 0.00 59 1015.5
20260506125851 3 306 3.2 8.0 0.00 0.00 0.00 60 1015.2
20260506125349 3 329 0.0 3.2 0.00 0.00 0.00 61 1015.3
20260506124847 3 228 1.6 4.8 0.00 0.00 0.00 61 1015.1
20260506124343 3 324 3.2 8.0 0.00 0.00 0.00 61 1015.2
20260506123841 3 299 3.2 3.2 0.00 0.00 0.00 63 1015.1
20260506123340 2 270 1.6 4.8 0.00 0.00 0.00 64 1014.9
20260506122836 2 275 1.6 3.2 0.00 0.00 0.00 64 1015.1
20260506122333 2 254 3.2 4.8 0.00 0.00 0.00 66 1015.1
20260506121832 1 336 4.8 4.8 0.00 0.00 0.00 69 1015.0
20260506121328 1 276 0.0 1.6 0.00 0.00 0.00 72 1014.9
20260506120825 0 258 0.0 1.6 0.00 0.00 0.00 74 1014.8
20260506120323 0 230 0.0 1.6 0.00 0.00 0.00 75 1014.8
20260506115820 0 230 0.0 0.0 0.00 0.00 0.00 76 1014.9
20260506115318 0 230 0.0 1.6 0.00 0.00 0.00 77 1014.8
20260506114816 -1 230 0.0 0.0 0.00 0.00 0.00 78 1014.5
20260506114314 -1 230 0.0 1.6 0.00 0.00 0.00 78 1014.7
20260506113812 -1 230 0.0 1.6 0.00 0.00 0.00 78 1014.4
20260506113309 -1 230 0.0 0.0 0.00 0.00 0.00 78 1014.5
20260506112806 -1 230 0.0 0.0 0.00 0.00 0.00 78 1014.5
20260506112305 -1 230 0.0 1.6 0.00 0.00 0.00 78 1014.5
20260506111800 -1 231 0.0 1.6 0.00 0.00 0.00 78 1014.5
20260506111258 -1 231 0.0 0.0 0.00 0.00 0.00 78 1014.5
20260506110755 -1 231 0.0 1.6 0.00 0.00 0.00 79 1014.4
20260506110253 -1 231 0.0 0.0 0.00 0.00 0.00 79 1014.4
20260506105749 -1 231 0.0 1.6 0.00 0.00 0.00 79 1014.4
20260506105246 -1 231 0.0 1.6 0.00 0.00 0.00 79 1014.4
20260506104744 -1 231 0.0 0.0 0.00 0.00 0.00 80 1014.5
20260506104241 -1 231 0.0 1.6 0.00 0.00 0.00 80 1014.3
20260506103738 -1 231 0.0 1.6 0.00 0.00 0.00 81 1014.2
20260506103235 -1 232 0.0 1.6 0.00 0.00 0.00 81 1014.3
20260506102733 -1 249 1.6 1.6 0.00 0.00 0.00 81 1014.0
20260506102231 -1 255 0.0 0.0 0.00 0.00 0.00 80 1014.1
20260506101728 -1 255 1.6 1.6 0.00 0.00 0.00 80 1014.1
20260506101224 0 255 0.0 1.6 0.00 0.00 0.00 80 1014.0
20260506100722 0 255 0.0 1.6 0.00 0.00 0.00 79 1013.9
20260506100220 0 256 0.0 1.6 0.00 0.00 0.00 78 1014.0
20260506095718 0 256 1.6 1.6 0.00 0.00 0.00 78 1014.2
20260506095215 0 256 1.6 1.6 0.00 0.00 0.00 77 1013.9
20260506094712 0 256 1.6 1.6 0.00 0.00 0.00 77 1014.1
20260506094210 0 257 0.0 1.6 0.00 0.00 0.00 76 1014.1
20260506093709 0 257 0.0 0.0 0.00 0.00 0.00 76 1014.1
20260506093205 0 257 0.0 1.6 0.00 0.00 0.00 75 1014.0
20260506092703 0 257 0.0 1.6 0.00 0.00 0.00 75 1014.1
20260506092200 0 257 0.0 1.6 0.00 0.00 0.00 75 1014.0
20260506091658 0 257 0.0 1.6 0.00 0.00 0.00 74 1014.0
20260506091155 0 257 0.0 0.0 0.00 0.00 0.00 74 1014.0
20260506090653 0 257 0.0 1.6 0.00 0.00 0.00 74 1014.1
20260506090149 0 257 0.0 0.0 0.00 0.00 0.00 73 1013.8
20260506085646 0 257 0.0 1.6 0.00 0.00 0.00 73 1014.1
20260506085142 0 257 0.0 1.6 0.00 0.00 0.00 72 1014.0
20260506084639 0 258 0.0 0.0 0.00 0.00 0.00 72 1013.7
20260506084136 0 258 0.0 0.0 0.00 0.00 0.00 71 1013.5
20260506083633 1 257 0.0 0.0 0.00 0.00 0.00 71 1013.7
20260506083130 1 257 0.0 0.0 0.00 0.00 0.00 71 1013.8
20260506082627 1 257 0.0 0.0 0.00 0.00 0.00 71 1014.0
20260506082122 1 257 0.0 1.6 0.00 0.00 0.00 70 1014.0
20260506081621 1 281 0.0 0.0 0.00 0.00 0.00 70 1014.0
20260506081118 1 281 0.0 1.6 0.00 0.00 0.00 70 1013.9
20260506080616 1 281 0.0 0.0 0.00 0.00 0.00 69 1013.8
20260506080112 1 281 0.0 0.0 0.00 0.00 0.00 68 1013.8
20260506073056 2 280 0.0 0.0 0.00 0.00 0.00 64 1013.5
20260506072553 2 281 0.0 0.0 0.00 0.00 0.00 63 1013.4
20260506072051 2 282 0.0 1.6 0.00 0.00 0.00 62 1013.5
20260506071548 2 288 0.0 1.6 0.00 0.00 0.00 62 1013.5
20260506071045 3 337 3.2 4.8 0.00 0.00 0.00 61 1013.4
20260506070543 3 294 3.2 3.2 0.00 0.00 0.00 60 1013.5
20260506062017 3 284 0.0 1.6 0.00 0.00 0.00 58 1013.2
20260506061512 3 302 3.2 3.2 0.00 0.00 0.00 58 1013.1
20260506061010 3 298 1.6 8.0 0.00 0.00 0.00 57 1013.3
20260506060509 3 274 0.0 4.8 0.00 0.00 0.00 57 1013.2
20260506050937 4 273 3.2 3.2 0.00 0.00 0.00 53 1012.8
20260506050435 5 247 1.6 3.2 0.00 0.00 0.00 53 1012.8
20260506044925 5 300 1.6 4.8 0.00 0.00 0.00 54 1012.5
20260506044424 5 265 0.0 3.2 0.00 0.00 0.00 54 1012.5
20260506043920 5 276 1.6 3.2 0.00 0.00 0.00 53 1012.5
20260506043417 5 285 1.6 3.2 0.00 0.00 0.00 53 1012.4
20260506042915 5 288 1.6 3.2 0.00 0.00 0.00 53 1012.4
20260506042415 5 339 6.4 9.7 0.00 0.00 0.00 52 1012.5
20260506041912 5 306 3.2 8.0 0.00 0.00 0.00 52 1012.3
20260506041410 5 321 8.0 11.3 0.00 0.00 0.00 52 1012.4
20260506040906 5 260 1.6 3.2 0.00 0.00 0.00 53 1012.4
20260506040404 5 318 6.4 9.7 0.00 0.00 0.00 51 1012.4
20260506035900 5 315 3.2 4.8 0.00 0.00 0.00 51 1012.2
20260506035357 6 46 3.2 11.3 0.00 0.00 0.00 51 1012.3
20260506034854 6 311 14.5 16.1 0.00 0.00 0.00 51 1012.3
20260506034351 6 307 8.0 16.1 0.00 0.00 0.00 50 1012.5
20260506033848 6 301 6.4 16.1 0.00 0.00 0.00 50 1012.4
20260506033345 6 335 3.2 8.0 0.00 0.00 0.00 50 1012.1